星链-1396 (STARLINK-1396 )

导读

STARLINK-1396是美国太空探索技术公司星链(Starlink)卫星互联网项目的一颗卫星,于2020年6月4日发射升空,属于星链项目早期部署批次,主要为全球提供低轨卫星互联网接入服务,目前已正常在轨运行超过五年,是星链星座组网中承担通信服务的一员。

Basic Information
目录编号:
45681
目录名称:
STARLINK-1396
国际标识:
2020-035AA
轨道中心:
EARTH
卫星名称:
星链-1396
卫星全名:
星链-1396 (STARLINK-1396 )
卫星状态:
已陨落 最后检测时间 2024-07-06
发射日期:
2020-06-04 UTC
国别 :
美国 (US)
星等 :
--
Orbit Information
数据来源 国际轨道数据
星历时间: 2024-07-07T01:53:04+0800
轨道信息已过期707天
半长轴: 6549.399km
偏心率: 0.0005246
轨道倾角: 53.014°
近地点辐角 322.108°
升交点赤经 229.748°
平近点角 52.932°
近地点: 167.828km
远地点: 174.7km
周期: 87.915分钟
每日圈数: 16.3795
Detailed Information
固有亮度:
5
最大亮度:
2.5
卫星平台:
Starlink V1.0
覆盖范围:
全球
运营商:
太空探索技术公司
运营商所在国:
美国
制造商(研发单位):
太空探索技术公司
制造商所在国:
美国
使用方式:
暂无
Satellite Introduction
星链(Starlink)计划是由太空探索技术公司(SpaceX)提出的一个巨型低轨卫星互联网星座项目,计划在2019年至2024年间在太空搭建由约1.2万颗卫星组成的“星链”网络,其中1584颗将部署在地球上空550千米处的近地轨道,并从2020年开始工作。该卫星仍在工作。